Overview Statistics Trail Chart Weather Telemetry Raw packets
 

This is the latest recevied weather packets stored in our database for station/object KA4YMY. If no packets are shown the sender has not sent any weather packets the latest 10 day(s).

<< 1 2 3 4 5 6 7 >>
Time Temp. Humidity Pressure Rain* Wind** Luminosity Snow
1788529817 30° C 75% 1017.3 hPa 0 mm - - -
1788529217 29.44° C 74% 1017.2 hPa 0 mm - - -
1788528617 28.89° C 75% 1017.2 hPa 0 mm - - -
1788528017 28.89° C 76% 1017.2 hPa 0 mm - - -
1788527417 28.33° C 77% 1017.2 hPa 0 mm - - -
1788526817 28.33° C 77% 1017.3 hPa 0 mm - - -
1788526217 27.78° C 78% 1017.4 hPa 0 mm - - -
1788525617 27.22° C 80% 1017.3 hPa 0 mm - - -
1788525017 26.67° C 80% 1017.4 hPa 0 mm - - -
1788524417 26.67° C 82% 1017.4 hPa 0 mm - - -
1788523817 26.11° C 84% 1017.4 hPa 0 mm - - -
1788523217 25° C 86% 1017.3 hPa 0 mm - - -
1788522617 24.44° C 86% 1017.1 hPa 0 mm - - -
1788522017 24.44° C 86% 1017 hPa 0 mm - - -
1788521417 24.44° C 87% 1016.8 hPa 0 mm - - -
1788520817 24.44° C 86% 1016.8 hPa 0 mm - - -
1788520217 24.44° C 86% 1016.7 hPa 0 mm - - -
1788519617 24.44° C 86% 1016.6 hPa 0 mm - - -
1788519017 24.44° C 86% 1016.4 hPa 0 mm - - -
1788518417 24.44° C 86% 1016.4 hPa 0 mm - - -
1788517834 24.44° C 86% 1016.3 hPa 0 mm - - -
1788517217 24.44° C 85% 1016.4 hPa 0 mm - - -
1788516616 25° C 86% 1016.4 hPa 0 mm - - -
1788516017 25° C 86% 1016.3 hPa 0 mm - - -
1788515417 24.44° C 86% 1016.2 hPa 0 mm - - -

* Rain latest hour (hover to see other rain measurements)
** Current wind speed in m/s (hover to see current wind gust speed)